Terminal Aerodrome Forecast
Issued by NWS St Louis, MO

Home | Current Version | Previous Version | Text Only | Print | Product List | Glossary On
Versions: 1 2 3 4 5 6 7 8 9 10 11 12 13 14 15 16 17 18 19 20 21 22 23 24 25 26 27 28 29 30 31 32 33 34 35 36 37 38 39 40 41 42 43 44 45 46 47 48 49 50
000
FTUS43 KLSX 220257 AAA
TAFSTL
TAF AMD
KSTL 220257Z 2203/2306 13012G25KT P6SM BKN240
     FM220600 14012G21KT P6SM SCT250 WS020/17045KT
     FM221700 15012G21KT P6SM -DZ OVC025 WS020/18045KT
     FM221900 16014G21KT 6SM -RA SCT008 OVC015 WS020/18045KT
     FM222100 16016G22KT 4SM -RA OVC008 WS020/19055KT=

USA.gov is the U.S. government's official web portal to all federal, state and local government web resources and services.